Yakima, WA

3:37 PM PDT on June 23, 2018 (GMT -0700)
Yakima Air Term-McAllister

Weather History for KYKM - November, 2017

Change the Weather History Date:

Tuesday, November 14, 2017

  Actual Average Record
Temperature  
Mean Temperature 46 °F 38 °F  
Max Temperature 55 °F 49 °F 66 °F (2001)
Min Temperature 37 °F 27 °F 0 °F (1955)
Degree Days  
Heating Degree Days 19 27  
Month to date heating degree days 331 345  
Since 1 July heating degree days 892 1049  
Cooling Degree Days 0 0  
Month to date cooling degree days 0 0  
Year to date cooling degree days 1054 472  
Moisture  
Dew Point 34 °F    
Average Humidity 63    
Maximum Humidity 82    
Minimum Humidity 43    
Precipitation  
Precipitation 0.00 in 0.04 in 0.36 in (1963)
Month to date precipitation 0.70 0.44  
Year to date precipitation 9.44 6.11  
Snow  
Snow 0.00 in 0.10 in 0.80 in (1947)
Month to date snowfall 0.4 0.7  
Year to date snowfall 29.5 9.4  
Since 1 July snowfall 0.4 0.8  
Snow Depth 0.00 in    
Sea Level Pressure  
Sea Level Pressure 30.03 in    
Wind  
Wind Speed 9 mph (SSW)    
Max Wind Speed 26 mph    
Max Gust Speed 31 mph    
Visibility 10 miles    
Events Rain    
T = Trace of Precipitation, MM = Missing Value Source: NWS Daily Summary

Daily Weather History Graph

Daily Weather History Graph

Search for Another Location

Airport or City:

Astronomy

Nov. 14, 2017 Rise Set
Actual Time 7:03 AM PST 4:29 PM PST
Civil Twilight 6:30 AM PST 5:02 PM PST
Nautical Twilight 5:53 AM PST 5:38 PM PST
Astronomical Twilight 5:18 AM PST 6:14 PM PST
Moon 2:51 AM PST (11/14) 3:12 PM PST (11/14)
Length of Visible Light 10h 31m
Length of Day
9h 26m
Waning Crescent, 13% of the Moon is Illuminated
Nov 14
Waning Crescent
Nov 18
New
Nov 26
First Quarter
Dec 3
Full
Dec 9
Last Quarter

Hourly Weather History & Observations

Time (PST) Temp. Windchill Dew Point Humidity Pressure Visibility Wind Dir Wind Speed Gust Speed Precip Events Conditions
12:53 AM 48.0 °F - 35.1 °F 61% 29.96 in 10.0 mi South 19.6 mph 26.5 mph 0.00 in Rain Light Rain
1:53 AM 48.0 °F - 35.1 °F 61% 29.96 in 10.0 mi SSW 19.6 mph 26.5 mph 0.00 in Rain Light Rain
2:53 AM 48.0 °F - 34.0 °F 58% 29.99 in 10.0 mi SSW 13.8 mph - 0.00 in Rain Light Rain
3:53 AM 46.9 °F - 34.0 °F 61% 30.02 in 10.0 mi ENE 6.9 mph - 0.00 in   Clear
4:53 AM 44.1 °F 39.5 °F 33.1 °F 65% 30.04 in 10.0 mi SSE 8.1 mph - 0.15 in   Clear
5:53 AM 43.0 °F 38.2 °F 33.1 °F 68% 30.07 in 10.0 mi NNE 8.1 mph - N/A   Clear
6:53 AM 37.9 °F 35.5 °F 32.0 °F 79% 30.09 in 10.0 mi NNE 3.5 mph - N/A   Clear
7:53 AM 41.0 °F 39.0 °F 33.1 °F 73% 30.11 in 10.0 mi Variable 3.5 mph - N/A   Clear
8:53 AM 48.0 °F - 35.1 °F 61% 30.11 in 10.0 mi Variable 6.9 mph - N/A   Clear
9:53 AM 51.1 °F - 36.0 °F 56% 30.11 in 10.0 mi SSW 19.6 mph 25.3 mph N/A   Clear
10:53 AM 52.0 °F - 36.0 °F 54% 30.10 in 10.0 mi South 19.6 mph - N/A   Scattered Clouds
11:53 AM 53.1 °F - 36.0 °F 52% 30.09 in 10.0 mi South 23.0 mph 28.8 mph N/A   Clear
12:53 PM 53.1 °F - 34.0 °F 48% 30.08 in 10.0 mi SSW 20.7 mph 28.8 mph N/A   Scattered Clouds
1:53 PM 55.0 °F - 34.0 °F 45% 30.08 in 10.0 mi SSW 9.2 mph - N/A   Scattered Clouds
2:53 PM 55.0 °F - 33.1 °F 43% 30.06 in 10.0 mi SSW 8.1 mph - N/A   Partly Cloudy
3:53 PM 51.1 °F - 34.0 °F 52% 30.05 in 10.0 mi South 5.8 mph - N/A   Partly Cloudy
4:53 PM 46.9 °F - 34.0 °F 61% 30.04 in 10.0 mi WSW 5.8 mph - N/A   Clear
5:53 PM 46.0 °F 44.8 °F 33.1 °F 61% 30.03 in 10.0 mi South 3.5 mph - N/A   Clear
6:53 PM 48.0 °F - 33.1 °F 56% 30.01 in 10.0 mi Calm Calm - N/A   Clear
7:53 PM 43.0 °F - 33.1 °F 68% 29.99 in 10.0 mi Calm Calm - N/A   Clear
8:53 PM 46.0 °F - 32.0 °F 58% 29.96 in 10.0 mi Calm Calm - N/A   Mostly Cloudy
9:53 PM 43.0 °F - 33.1 °F 68% 29.95 in 10.0 mi Calm Calm - N/A   Mostly Cloudy
10:53 PM 41.0 °F 37.1 °F 33.1 °F 73% 29.93 in 10.0 mi West 5.8 mph - N/A   Clear
11:53 PM 41.0 °F - 33.1 °F 73% 29.91 in 10.0 mi Calm Calm - N/A   Scattered Clouds